Location: Kikino
(54.4440°N, 112.0940°W)
Time: 23:23:17
(UTC+00:00)

AAUSAT CUBESAT 2 - Visible Passes

Search period start: 01 December 2023 00:00
Search period end: 11 December 2023 00:00
Orbit: 534 x 546 km, 97.6° (Epoch: 30 November)

Date Brightness Start Highest point End Pass type
(mag) Time Alt. Az. Time Alt. Az. Time Alt. Az.
01 Dec ? 00:01:40 10° SW 00:04:31 19° W 00:07:22 10° NW visible
01 Dec ? 13:03:21 10° N 13:03:45 12° N 13:03:45 12° N visible
01 Dec ? 23:54:00 10° SW 23:57:06 22° W 00:00:13 10° NW visible
02 Dec ? 12:55:55 10° N 12:56:10 11° N 12:56:10 11° N visible
02 Dec ? 23:46:23 10° SSW 23:49:41 26° W 23:52:59 10° NW visible
03 Dec ? 12:48:27 10° N 12:48:33 11° N 12:48:33 11° N visible
10 Dec ? 00:30:58 10° W 00:32:00 11° W 00:33:01 10° WNW visible
